When you browse on this site, cookies collect data to enhance your experience and personalize the content and advertising you see.
Visit our Privacy Policy to learn more. By continuing to use the site, you agree to this use of cookies and data.
  • In Romania
  • List of Countries
  • For 7 days
  • Water Temperature
  • Weather Map
  • Weather Widgets
  • user-avatar
    Login

    Hourly Weather Northampton

    Today, 5 June, Friday

    Time Temperature Precipitation Wind Pressure Humidity
    00:00 +6°C° 0.1 mm 4 mps 739 mmHg 96%
    01:00 +6°C° 0 mm 4 mps 739 mmHg 95%
    02:00 +6°C° 0 mm 4 mps 738 mmHg 95%
    03:00 +6°C° 0 mm 5 mps 737 mmHg 94%
    04:00 +6°C° 0 mm 5 mps 737 mmHg 92%
    05:00 +5°C° 0 mm 6 mps 737 mmHg 91%
    06:00 +6°C° 0 mm 7 mps 737 mmHg 89%
    07:00 +7°C° 0.3 mm 6 mps 737 mmHg 89%
    08:00 +7°C° 0.3 mm 6 mps 737 mmHg 89%
    09:00 +7°C° 0.3 mm 5 mps 737 mmHg 89%
    10:00 +8°C° 0.6 mm 5 mps 738 mmHg 86%
    11:00 +9°C° 0.6 mm 6 mps 738 mmHg 82%
    12:00 +9°C° 0.6 mm 6 mps 738 mmHg 79%
    13:00 +10°C° 0.2 mm 7 mps 738 mmHg 71%
    14:00 +11°C° 0.2 mm 8 mps 738 mmHg 63%
    15:00 +12°C° 0.2 mm 9 mps 738 mmHg 55%
    16:00 +12°C° 0.1 mm 8 mps 738 mmHg 58%
    17:00 +11°C° 0.1 mm 7 mps 738 mmHg 62%
    18:00 +10°C° 0.1 mm 7 mps 738 mmHg 66%
    19:00 +9°C° 0 mm 6 mps 738 mmHg 67%
    20:00 +7°C° 0 mm 6 mps 738 mmHg 69%
    21:00 +6°C° 0 mm 5 mps 739 mmHg 71%
    22:00 +4°C° 0 mm 6 mps 739 mmHg 73%
    23:00 +4°C° 0 mm 6 mps 739 mmHg 76%

    Tomorrow, 6 June, Saturday

    Time Temperature Precipitation Wind Pressure Humidity
    00:00 +3°C° 0 mm 6 mps 738 mmHg 78%
    01:00 +3°C° 0 mm 7 mps 738 mmHg 78%
    02:00 +3°C° 0 mm 7 mps 738 mmHg 77%
    03:00 +2°C° 0 mm 8 mps 738 mmHg 76%
    04:00 +3°C° 0 mm 9 mps 737 mmHg 77%
    05:00 +3°C° 0 mm 10 mps 737 mmHg 77%
    06:00 +5°C° 0 mm 10 mps 736 mmHg 77%
    07:00 +5°C° 0.7 mm 10 mps 736 mmHg 82%
    08:00 +6°C° 0.7 mm 9 mps 736 mmHg 88%
    09:00 +7°C° 0.7 mm 8 mps 736 mmHg 93%
    10:00 +9°C° 0.6 mm 8 mps 736 mmHg 88%
    11:00 +10°C° 0.6 mm 8 mps 737 mmHg 83%
    12:00 +12°C° 0.6 mm 8 mps 737 mmHg 78%
    13:00 +12°C° 0.6 mm 8 mps 737 mmHg 77%
    14:00 +12°C° 0.6 mm 8 mps 738 mmHg 77%
    15:00 +12°C° 0.6 mm 7 mps 738 mmHg 77%
    16:00 +13°C° 0.4 mm 6 mps 739 mmHg 79%
    17:00 +13°C° 0.4 mm 5 mps 739 mmHg 81%
    18:00 +13°C° 0.4 mm 4 mps 740 mmHg 83%
    19:00 +12°C° 0.2 mm 4 mps 740 mmHg 86%
    20:00 +10°C° 0.2 mm 4 mps 741 mmHg 88%
    21:00 +8°C° 0.2 mm 4 mps 742 mmHg 91%
    22:00 +8°C° 0 mm 4 mps 742 mmHg 92%
    23:00 +7°C° 0 mm 4 mps 742 mmHg 94%

    Day after tomorrow, 7 June, Sunday

    Time Temperature Precipitation Wind Pressure Humidity
    00:00 +7°C° 0 mm 4 mps 743 mmHg 95%
    01:00 +6°C° 0 mm 4 mps 743 mmHg 96%
    02:00 +7°C° 0 mm 3 mps 743 mmHg 96%
    03:00 +5°C° 0 mm 3 mps 743 mmHg 97%
    04:00 +7°C° 0 mm 3 mps 744 mmHg 96%
    05:00 +8°C° 0 mm 2 mps 744 mmHg 96%
    06:00 +9°C° 0 mm 2 mps 744 mmHg 96%
    07:00 +10°C° 0 mm 2 mps 745 mmHg 90%
    08:00 +13°C° 0 mm 2 mps 745 mmHg 84%
    09:00 +15°C° 0 mm 2 mps 746 mmHg 78%
    10:00 +16°C° 0.3 mm 2 mps 746 mmHg 75%
    11:00 +16°C° 0.3 mm 2 mps 746 mmHg 73%
    12:00 +17°C° 0.3 mm 2 mps 746 mmHg 70%
    13:00 +17°C° 0.8 mm 3 mps 746 mmHg 73%
    14:00 +17°C° 0.8 mm 3 mps 747 mmHg 77%
    15:00 +17°C° 0.8 mm 4 mps 747 mmHg 80%
    16:00 +15°C° 0.3 mm 5 mps 747 mmHg 82%
    17:00 +14°C° 0.3 mm 5 mps 748 mmHg 85%
    18:00 +13°C° 0.3 mm 6 mps 748 mmHg 87%
    19:00 +11°C° 0 mm 6 mps 749 mmHg 88%
    20:00 +10°C° 0 mm 5 mps 749 mmHg 89%
    21:00 +9°C° 0 mm 5 mps 750 mmHg 90%
    22:00 +9°C° 0 mm 5 mps 750 mmHg 91%
    23:00 +8°C° 0 mm 4 mps 751 mmHg 92%

    8 June, Monday

    Time Temperature Precipitation Wind Pressure Humidity
    00:00 +7°C° 0 mm 4 mps 751 mmHg 93%
    01:00 +7°C° 0 mm 4 mps 751 mmHg 93%
    02:00 +6°C° 0 mm 4 mps 751 mmHg 94%
    03:00 +7°C° 0 mm 3 mps 751 mmHg 94%
    04:00 +7°C° 0 mm 4 mps 752 mmHg 92%
    05:00 +7°C° 0 mm 4 mps 752 mmHg 90%
    06:00 +8°C° 0 mm 5 mps 753 mmHg 87%
    07:00 +9°C° 0 mm 5 mps 753 mmHg 82%
    08:00 +10°C° 0 mm 5 mps 753 mmHg 77%
    09:00 +12°C° 0 mm 5 mps 754 mmHg 71%
    10:00 +13°C° 0 mm 4 mps 754 mmHg 70%
    11:00 +13°C° 0 mm 4 mps 754 mmHg 68%
    12:00 +14°C° 0 mm 4 mps 754 mmHg 67%
    13:00 +14°C° 0 mm 4 mps 754 mmHg 66%
    14:00 +14°C° 0 mm 4 mps 755 mmHg 66%
    15:00 +14°C° 0 mm 4 mps 755 mmHg 66%
    16:00 +13°C° 0 mm 4 mps 755 mmHg 68%
    17:00 +13°C° 0 mm 4 mps 755 mmHg 70%
    18:00 +12°C° 0 mm 4 mps 755 mmHg 72%
    19:00 +10°C° 0 mm 3 mps 755 mmHg 78%
    20:00 +9°C° 0 mm 3 mps 756 mmHg 84%
    21:00 +7°C° 0 mm 3 mps 756 mmHg 90%
    22:00 +7°C° 0 mm 2 mps 757 mmHg 90%
    23:00 +6°C° 0 mm 2 mps 757 mmHg 91%

    9 June, Tuesday

    Time Temperature Precipitation Wind Pressure Humidity
    00:00 +5°C° 0 mm 2 mps 757 mmHg 92%
    01:00 +5°C° 0 mm 2 mps 757 mmHg 91%
    02:00 +5°C° 0 mm 2 mps 757 mmHg 91%
    03:00 +5°C° 0 mm 2 mps 757 mmHg 90%
    04:00 +5°C° 0 mm 3 mps 757 mmHg 88%
    05:00 +7°C° 0 mm 3 mps 757 mmHg 85%
    06:00 +8°C° 0 mm 3 mps 758 mmHg 83%
    07:00 +8°C° 0 mm 4 mps 758 mmHg 80%
    08:00 +8°C° 0 mm 4 mps 758 mmHg 77%
    09:00 +10°C° 0 mm 4 mps 758 mmHg 74%
    10:00 +11°C° 0 mm 4 mps 758 mmHg 73%
    11:00 +12°C° 0 mm 4 mps 758 mmHg 71%
    12:00 +13°C° 0 mm 4 mps 759 mmHg 70%
    13:00 +13°C° 0.1 mm 5 mps 759 mmHg 72%
    14:00 +13°C° 0.1 mm 5 mps 759 mmHg 73%
    15:00 +13°C° 0.1 mm 5 mps 758 mmHg 75%
    16:00 +13°C° 0.1 mm 4 mps 759 mmHg 76%
    17:00 +13°C° 0.1 mm 4 mps 759 mmHg 78%
    18:00 +13°C° 0.1 mm 4 mps 759 mmHg 79%
    19:00 +11°C° 0 mm 4 mps 759 mmHg 84%
    20:00 +9°C° 0 mm 3 mps 760 mmHg 88%
    21:00 +8°C° 0 mm 3 mps 760 mmHg 92%
    22:00 +7°C° 0 mm 3 mps 760 mmHg 93%
    23:00 +5°C° 0 mm 3 mps 760 mmHg 93%

    10 June, Wednesday

    Time Temperature Precipitation Wind Pressure Humidity
    00:00 +5°C° 0 mm 3 mps 761 mmHg 94%
    01:00 +4°C° 0 mm 3 mps 761 mmHg 94%
    02:00 +4°C° 0 mm 3 mps 761 mmHg 94%
    03:00 +4°C° 0 mm 3 mps 760 mmHg 94%
    04:00 +4°C° 0 mm 3 mps 761 mmHg 92%
    05:00 +5°C° 0 mm 3 mps 761 mmHg 89%
    06:00 +6°C° 0 mm 4 mps 761 mmHg 87%
    07:00 +8°C° 0 mm 4 mps 761 mmHg 82%
    08:00 +10°C° 0 mm 4 mps 761 mmHg 76%
    09:00 +12°C° 0 mm 5 mps 761 mmHg 71%
    10:00 +12°C° 0 mm 4 mps 761 mmHg 70%
    11:00 +12°C° 0 mm 4 mps 761 mmHg 70%
    12:00 +13°C° 0 mm 4 mps 761 mmHg 69%
    13:00 +13°C° 0 mm 4 mps 761 mmHg 70%
    14:00 +13°C° 0 mm 4 mps 761 mmHg 70%
    15:00 +14°C° 0 mm 4 mps 760 mmHg 70%
    16:00 +13°C° 0 mm 4 mps 760 mmHg 72%
    17:00 +13°C° 0 mm 4 mps 760 mmHg 75%
    18:00 +12°C° 0 mm 3 mps 760 mmHg 77%
    19:00 +11°C° 0 mm 3 mps 760 mmHg 81%
    20:00 +10°C° 0 mm 3 mps 761 mmHg 84%
    21:00 +9°C° 0 mm 3 mps 761 mmHg 88%
    22:00 +9°C° 0 mm 3 mps 761 mmHg 89%
    23:00 +9°C° 0 mm 3 mps 760 mmHg 89%
    Show more